"startDT [UTC]","vpos","CH4 [ppm]","stdev(CH4) [ppm]","CO2 [ppm]","stdev(CO2) [ppm]","H2O [ppm]","stdev(H2O)","p_LGR [torr]","T_LGR [C]","mt1_LGR [us]","mt2_LGR [us]","T_ECpre [C]","T_EC1 [C]","T_EC2 [C]","p_inlet [hPa]","p_in [hPa]","p_out [hPa]","T_inlet [C]","RH_inlet [%]","dwpt_inlet [C]","T_vent [C]","RH_vent [%]","dwpt_vent [C]","flow_vent [l min-1]","flow_inlet [l min-1]","dwpt_sample [C]","T_room [C]"
2012-03-21 00:00:00,0.0,1.9177,0.0009,401.86,0.19,-0.9,0.8,138.11,28.27,24.60,36.32,0.04,-272.73,-272.73,-50,558,-922,22.7,1.4,-32.6,22.7,1.5,-32.1,5.73,2.33,-31.4,27.5
2012-03-21 00:01:00,0.0,1.9181,0.0008,401.95,0.20,-0.4,3.3,138.11,28.28,24.60,36.32,0.04,-272.74,-272.73,-49,559,-923,22.7,1.4,-32.6,22.7,1.5,-32.1,5.73,2.43,-31.4,27.5
2012-03-21 00:02:00,0.0,1.9178,0.0011,401.87,0.21,-0.9,0.7,138.11,28.30,24.60,36.33,0.04,-272.73,-272.73,-50,559,-922,22.7,1.4,-32.5,22.8,1.5,-32.1,5.73,2.27,-31.3,27.6
2012-03-21 00:03:00,0.0,1.9165,0.0010,401.80,0.19,-0.1,5.3,138.11,28.31,24.61,36.33,0.04,-272.74,-272.73,-49,558,-922,22.8,1.4,-32.4,22.8,1.5,-32.0,5.73,2.47,-31.3,27.6
2012-03-21 00:04:00,0.0,1.9168,0.0010,401.85,0.20,0.3,5.9,138.10,28.32,24.61,36.33,0.04,-272.74,-272.74,-50,558,-922,22.8,1.5,-32.3,22.8,1.5,-31.9,5.73,2.24,-31.2,27.7
2012-03-21 00:05:00,0.0,1.9177,0.0008,401.89,0.19,1.4,11.1,138.10,28.34,24.61,36.33,0.04,-272.74,-272.74,-50,559,-922,22.8,1.5,-32.3,22.9,1.5,-31.8,5.73,2.47,-31.2,27.7
2012-03-21 00:06:00,0.0,1.9178,0.0009,402.18,0.22,-0.5,3.0,138.10,28.35,24.61,36.32,0.04,-272.74,-272.73,-50,558,-922,22.9,1.5,-32.2,22.9,1.5,-31.7,5.73,2.26,-31.1,27.8
2012-03-21 00:07:00,0.0,1.9178,0.0009,402.12,0.15,0.5,7.2,138.10,28.36,24.61,36.32,0.04,-272.74,-272.74,-50,558,-922,22.9,1.5,-32.1,22.9,1.5,-31.7,5.73,2.43,-31.1,27.9
2012-03-21 00:08:00,0.0,1.9183,0.0009,402.13,0.22,0.9,8.3,138.10,28.38,24.61,36.33,0.04,-272.74,-272.74,-49,559,-922,22.9,1.5,-32.0,22.9,1.5,-31.6,5.73,2.30,-31.0,27.9
2012-03-21 00:09:00,0.0,1.9187,0.0009,402.14,0.20,2.1,11.0,138.10,28.39,24.61,36.33,0.04,-272.73,-272.73,-50,558,-922,22.9,1.5,-31.9,23.0,1.6,-31.4,5.73,2.39,-30.9,28.0
2012-03-21 00:10:00,0.0,1.9193,0.0010,402.21,0.19,1.5,8.6,138.10,28.40,24.61,36.32,0.04,-272.73,-272.73,-50,559,-922,23.0,1.5,-31.8,23.0,1.6,-31.3,5.73,2.38,-30.9,27.4
2012-03-21 00:11:00,0.0,1.9189,0.0010,402.16,0.17,-0.4,3.4,138.10,28.41,24.61,36.33,0.04,-272.74,-272.74,-50,559,-923,22.9,1.5,-31.9,23.0,1.6,-31.3,5.73,2.29,-31.0,26.8
2012-03-21 00:12:00,0.0,1.9192,0.0011,402.21,0.20,-0.2,3.7,138.11,28.41,24.60,36.32,0.04,-272.74,-272.74,-50,559,-923,22.9,1.5,-31.9,23.0,1.6,-31.3,5.73,2.33,-31.1,26.4
2012-03-21 00:13:00,0.0,1.9182,0.0010,402.13,0.19,-0.6,2.2,138.12,28.40,24.61,36.32,0.04,-272.73,-272.74,-50,560,-923,22.9,1.5,-31.9,22.9,1.6,-31.5,5.73,2.36,-31.3,26.1
2012-03-21 00:14:00,0.0,1.9179,0.0010,402.09,0.18,-1.0,0.0,138.12,28.39,24.61,36.32,0.04,-272.73,-272.73,-50,560,-923,22.9,1.5,-32.0,22.8,1.6,-31.5,5.73,2.37,-31.4,25.7
2012-03-21 00:15:00,0.0,1.9172,0.0012,402.07,0.23,-1.0,0.0,138.13,28.38,24.61,36.32,0.04,-272.74,-272.74,-50,559,-923,22.8,1.5,-32.1,22.8,1.6,-31.6,5.73,2.38,-31.6,25.5
2012-03-21 00:16:00,0.0,1.9164,0.0011,402.07,0.22,-1.0,0.0,138.14,28.36,24.61,36.32,0.04,-272.73,-272.74,-50,559,-923,22.8,1.5,-32.2,22.7,1.6,-31.7,5.73,2.38,-31.7,25.4
2012-03-21 00:17:00,0.0,1.9160,0.0009,402.20,0.22,-1.0,0.0,138.14,28.34,24.61,36.31,0.04,-272.74,-272.73,-50,559,-923,22.7,1.5,-32.2,22.7,1.5,-31.9,5.73,2.38,-31.8,25.3
2012-03-21 00:18:00,0.0,1.9155,0.0010,401.97,0.22,-1.0,0.0,138.14,28.32,24.61,36.32,0.04,-272.74,-272.73,-50,559,-923,22.6,1.5,-32.4,22.6,1.5,-32.0,5.73,2.38,-32.0,25.1
2012-03-21 00:19:00,0.0,1.9151,0.0010,401.85,0.18,-1.0,0.0,138.15,28.29,24.60,36.32,0.04,-272.73,-272.74,-50,559,-923,22.6,1.5,-32.4,22.5,1.5,-32.2,5.73,2.35,-32.1,25.2
2012-03-21 00:20:00,0.0,1.9149,0.0010,402.05,0.29,-1.0,0.0,138.15,28.26,24.60,36.31,0.04,-272.73,-272.73,-51,559,-923,22.6,1.5,-32.5,22.5,1.5,-32.1,5.73,2.39,-32.1,25.7
2012-03-21 00:21:00,0.0,1.9148,0.0009,401.80,0.15,-1.0,0.0,138.14,28.25,24.60,36.32,0.04,-272.74,-272.74,-52,559,-922,22.6,1.5,-32.2,22.5,1.5,-32.0,5.73,2.45,-32.0,26.1
2012-03-21 00:22:00,0.0,1.9148,0.0007,401.82,0.19,-1.0,0.0,138.14,28.23,24.60,36.32,0.04,-272.73,-272.73,-51,558,-922,22.6,1.5,-32.3,22.5,1.5,-31.9,5.73,2.25,-32.0,26.4
2012-03-21 00:23:00,0.0,1.9160,0.0010,401.92,0.23,-1.0,0.0,138.14,28.23,24.60,36.32,0.04,-272.74,-272.74,-50,558,-922,22.6,1.5,-32.2,22.5,1.5,-31.9,5.73,2.47,-31.9,26.6
2012-03-21 00:24:00,0.0,1.9154,0.0011,401.82,0.19,-1.0,0.0,138.13,28.22,24.60,36.32,0.04,-272.74,-272.73,-50,558,-922,22.6,1.5,-32.3,22.5,1.5,-31.9,5.73,2.25,-31.8,26.8
2012-03-21 00:25:00,0.0,1.9162,0.0011,402.07,0.22,-0.9,0.9,138.13,28.23,24.60,36.31,0.04,-272.74,-272.74,-48,558,-917,22.6,1.5,-32.2,22.6,1.5,-31.9,5.73,2.48,-31.7,26.9
2012-03-21 00:26:00,0.0,1.9162,0.0008,402.03,0.17,-1.0,0.0,138.12,28.23,24.61,36.32,0.04,-272.74,-272.73,-50,557,-923,22.6,1.5,-32.2,22.6,1.5,-31.9,5.73,2.26,-31.6,27.0
2012-03-21 00:27:00,0.0,1.9164,0.0008,401.91,0.17,-1.0,0.0,138.12,28.24,24.60,36.32,0.04,-272.73,-272.73,-50,557,-922,22.7,1.5,-32.2,22.6,1.5,-31.8,5.73,2.44,-31.5,27.1
2012-03-21 00:28:00,0.0,1.9170,0.0009,401.99,0.19,-1.0,0.0,138.12,28.24,24.60,36.32,0.04,-272.74,-272.73,-50,558,-923,22.7,1.5,-32.2,22.7,1.5,-31.8,5.73,2.32,-31.4,27.2
2012-03-21 00:29:00,0.0,1.9174,0.0008,402.13,0.24,-1.0,0.0,138.12,28.25,24.60,36.32,0.04,-272.74,-272.73,-50,558,-921,22.7,1.5,-32.2,22.7,1.5,-31.8,5.73,2.36,-31.3,27.3
2012-03-21 00:30:00,0.0,1.9181,0.0011,402.20,0.26,-1.0,0.0,138.11,28.26,24.61,36.32,0.04,-272.74,-272.74,-50,558,-926,22.7,1.5,-32.2,22.7,1.5,-31.8,5.73,2.40,-31.3,27.3
2012-03-21 00:31:00,0.0,1.9172,0.0009,402.13,0.20,-1.0,0.0,138.11,28.27,24.61,36.32,0.04,-272.73,-272.73,-53,556,-921,22.7,1.5,-32.2,22.7,1.5,-31.8,5.73,2.29,-31.2,27.4
2012-03-21 00:32:00,0.0,1.9176,0.0008,402.24,0.18,-0.3,3.1,138.11,28.28,24.61,36.32,0.04,-272.74,-272.73,-50,556,-922,22.7,1.5,-32.2,22.8,1.5,-31.7,5.73,2.46,-31.1,27.5
2012-03-21 00:33:00,0.0,1.9184,0.0010,402.24,0.17,-0.2,4.4,138.11,28.30,24.60,36.32,0.04,-272.73,-272.74,-50,558,-922,22.8,1.5,-32.1,22.8,1.6,-31.5,5.73,2.25,-31.1,27.5
2012-03-21 00:34:00,0.0,1.9180,0.0007,402.21,0.20,-0.1,5.3,138.11,28.31,24.61,36.33,0.04,-272.73,-272.73,-50,558,-922,22.8,1.5,-31.8,22.8,1.6,-31.4,5.73,2.48,-31.0,27.6
2012-03-21 00:35:00,0.0,1.9187,0.0010,402.32,0.18,-0.6,2.6,138.11,28.32,24.60,36.32,0.04,-272.74,-272.74,-50,558,-922,22.8,1.5,-31.9,22.8,1.6,-31.4,5.73,2.25,-30.9,27.7
2012-03-21 00:36:00,0.0,1.9197,0.0009,402.28,0.21,0.7,7.5,138.10,28.33,24.61,36.32,0.04,-272.73,-272.74,-49,558,-922,22.8,1.5,-31.9,22.9,1.6,-31.4,5.73,2.46,-30.9,27.7
2012-03-21 00:37:00,0.0,1.9194,0.0010,402.40,0.20,-0.5,2.8,138.10,28.34,24.61,36.32,0.04,-272.73,-272.73,-56,560,-921,22.9,1.5,-31.7,22.9,1.6,-31.3,5.73,2.27,-30.8,27.8
2012-03-21 00:38:00,0.0,1.9196,0.0011,402.30,0.21,0.3,5.2,138.10,28.36,24.61,36.33,0.04,-272.73,-272.74,-50,559,-922,22.9,1.5,-31.7,22.9,1.6,-31.3,5.73,2.42,-30.8,27.8
2012-03-21 00:39:00,0.0,1.9199,0.0009,402.34,0.21,2.4,8.5,138.10,28.37,24.61,36.32,0.04,-272.74,-272.74,-50,558,-922,22.9,1.5,-31.7,22.9,1.6,-31.2,5.73,2.31,-30.7,27.9
2012-03-21 00:40:00,0.0,1.9202,0.0009,402.31,0.22,0.9,6.9,138.10,28.39,24.61,36.33,0.04,-272.74,-272.74,-50,559,-922,23.0,1.5,-31.6,23.0,1.6,-31.2,5.73,2.39,-30.7,27.9
2012-03-21 00:41:00,0.0,1.9202,0.0010,402.36,0.17,0.2,5.0,138.10,28.40,24.61,36.33,0.04,-272.73,-272.74,-50,559,-922,23.0,1.5,-31.6,23.0,1.6,-31.1,5.73,2.33,-30.6,27.9
2012-03-21 00:42:00,0.0,1.9212,0.0013,402.36,0.18,3.7,12.4,138.10,28.42,24.61,36.33,0.04,-272.73,-272.74,-50,559,-922,23.0,1.5,-31.6,23.0,1.6,-31.1,5.73,2.31,-30.6,27.3
2012-03-21 00:43:00,0.0,1.9219,0.0008,402.34,0.18,-0.8,1.7,138.10,28.42,24.61,36.32,0.04,-272.73,-272.73,-50,560,-923,23.0,1.5,-31.7,23.0,1.6,-31.2,5.73,2.43,-30.7,26.6
2012-03-21 00:44:00,0.0,1.9215,0.0009,402.28,0.21,-0.5,2.9,138.11,28.42,24.61,36.33,0.04,-272.73,-272.74,-50,560,-923,23.0,1.5,-31.8,23.0,1.6,-31.3,5.73,2.40,-30.9,26.2
2012-03-21 00:45:00,0.0,1.9211,0.0010,402.23,0.19,0.2,4.9,138.12,28.42,24.61,36.32,0.04,-272.74,-272.73,-50,560,-923,22.9,1.5,-31.9,22.9,1.6,-31.4,5.73,2.38,-31.0,26.0
2012-03-21 00:46:00,0.0,1.9202,0.0008,402.27,0.18,-0.5,4.0,138.12,28.41,24.61,36.32,0.04,-272.74,-272.74,-50,560,-923,22.9,1.5,-32.1,22.9,1.5,-31.7,5.73,2.37,-31.2,25.8
2012-03-21 00:47:00,0.0,1.9195,0.0011,402.32,0.23,-0.9,0.9,138.13,28.39,24.61,36.32,0.04,-272.74,-272.73,-50,560,-923,22.9,1.5,-32.3,22.8,1.5,-31.9,5.73,2.37,-31.3,25.6
2012-03-21 00:48:00,0.0,1.9184,0.0009,402.25,0.17,-1.0,0.0,138.13,28.37,24.61,36.31,0.04,-272.73,-272.74,-50,560,-923,22.8,1.4,-32.5,22.8,1.5,-32.1,5.73,2.37,-31.4,25.4
2012-03-21 00:49:00,0.0,1.9181,0.0010,402.10,0.16,-1.0,0.0,138.14,28.35,24.61,36.32,0.04,-272.74,-272.74,-50,559,-923,22.8,1.4,-32.7,22.7,1.5,-32.4,5.73,2.36,-31.5,25.2
2012-03-21 00:50:00,0.0,1.9173,0.0009,402.07,0.21,-1.0,0.0,138.14,28.33,24.61,36.32,0.04,-272.73,-272.74,-50,559,-923,22.7,1.4,-32.8,22.6,1.5,-32.5,5.73,2.36,-31.7,25.1
2012-03-21 00:51:00,0.0,1.9179,0.0009,402.08,0.21,-1.0,0.0,138.15,28.30,24.61,36.32,0.04,-272.73,-272.74,-51,559,-923,22.7,1.4,-33.0,22.6,1.4,-32.7,5.73,2.38,-31.7,25.3
2012-03-21 00:52:00,0.0,1.9170,0.0009,402.05,0.21,-1.0,0.0,138.15,28.28,24.61,36.32,0.04,-272.73,-272.73,-51,559,-923,22.6,1.4,-33.0,22.5,1.4,-32.7,5.73,2.30,-31.8,25.8
2012-03-21 00:53:00,0.0,1.9151,0.0010,401.92,0.21,-1.0,0.0,138.14,28.26,24.61,36.32,0.04,-272.73,-272.73,-48,556,-922,22.6,1.4,-33.0,22.5,1.4,-32.7,5.73,2.33,-31.7,26.2
2012-03-21 00:54:00,0.0,1.9149,0.0010,401.92,0.20,-1.0,0.0,138.14,28.25,24.60,36.32,0.04,-272.73,-272.74,-50,558,-922,22.6,1.4,-33.1,22.6,1.4,-32.7,5.73,2.44,-31.6,26.5
2012-03-21 00:55:00,0.0,1.9149,0.0008,401.86,0.20,-1.0,0.0,138.13,28.24,24.60,36.32,0.04,-272.73,-272.74,-51,558,-922,22.6,1.4,-33.2,22.6,1.4,-32.8,5.73,2.26,-31.6,26.7
2012-03-21 00:56:00,0.0,1.9150,0.0010,401.89,0.26,-1.0,0.0,138.13,28.24,24.61,36.32,0.04,-272.74,-272.74,-50,558,-922,22.7,1.3,-33.4,22.6,1.4,-33.0,5.73,2.48,-31.5,26.8
2012-03-21 00:57:00,0.0,1.9163,0.0011,401.99,0.22,-1.0,0.0,138.13,28.24,24.61,36.32,0.04,-272.74,-272.74,-51,558,-922,22.7,1.3,-33.4,22.7,1.4,-33.0,5.73,2.25,-31.3,27.0
2012-03-21 00:58:00,0.0,1.9175,0.0009,402.07,0.18,-1.0,0.0,138.12,28.24,24.61,36.32,0.04,-272.74,-272.74,-50,559,-922,22.7,1.3,-33.4,22.7,1.4,-33.0,5.73,2.47,-31.3,27.1
2012-03-21 00:59:00,0.0,1.9181,0.0009,402.06,0.22,-1.0,0.0,138.12,28.25,24.60,36.32,0.04,-272.73,-272.74,-50,556,-922,22.7,1.3,-33.3,22.7,1.4,-32.9,5.73,2.28,-31.2,27.2
2012-03-21 01:00:00,0.0,1.9176,0.0007,402.11,0.22,-1.0,0.0,138.12,28.26,24.60,36.32,0.04,-272.73,-272.74,-50,556,-922,22.7,1.3,-33.2,22.7,1.4,-32.7,5.73,2.42,-31.1,27.3
2012-03-21 01:01:00,0.0,1.9177,0.0009,401.95,0.20,-1.0,0.0,138.12,28.27,24.61,36.32,0.04,-272.73,-272.73,-50,559,-922,22.7,1.4,-33.0,22.7,1.4,-32.7,5.73,2.34,-31.0,27.3
2012-03-21 01:02:00,0.0,1.9180,0.0009,401.94,0.20,-0.8,1.9,138.11,28.28,24.61,36.32,0.04,-272.74,-272.74,-50,558,-922,22.7,1.4,-32.8,22.8,1.4,-32.4,5.73,2.35,-31.0,27.4
2012-03-21 01:03:00,0.0,1.9188,0.0009,402.07,0.25,-0.9,0.4,138.11,28.29,24.61,36.32,0.04,-272.73,-272.74,-50,558,-922,22.8,1.4,-32.7,22.8,1.5,-32.3,5.73,2.40,-30.9,27.5
2012-03-21 01:04:00,0.0,1.9188,0.0009,401.96,0.19,-0.4,3.6,138.11,28.30,24.61,36.33,0.04,-272.74,-272.73,-50,558,-922,22.8,1.4,-32.5,22.8,1.5,-32.1,5.73,2.29,-30.8,27.5
2012-03-21 01:05:00,0.0,1.9189,0.0009,402.05,0.17,0.4,5.2,138.11,28.32,24.61,36.33,0.04,-272.73,-272.73,-50,558,-922,22.8,1.4,-32.4,22.8,1.5,-32.0,5.73,2.45,-30.8,27.6
2012-03-21 01:06:00,0.0,1.9191,0.0008,402.07,0.17,1.3,7.4,138.11,28.33,24.61,36.33,0.04,-272.73,-272.74,-50,558,-922,22.9,1.5,-32.3,22.9,1.5,-31.9,5.73,2.25,-30.7,27.6
2012-03-21 01:07:00,0.0,1.9200,0.0010,402.26,0.18,0.7,10.1,138.10,28.35,24.61,36.33,0.04,-272.73,-272.73,-50,558,-922,22.9,1.5,-32.2,22.9,1.5,-31.7,5.73,2.47,-30.6,27.7
2012-03-21 01:08:00,0.0,1.9205,0.0010,402.21,0.19,1.5,8.0,138.10,28.36,24.61,36.33,0.04,-272.74,-272.73,-49,558,-921,22.9,1.5,-32.3,22.9,1.5,-31.7,5.73,2.24,-30.6,27.8
2012-03-21 01:09:00,0.0,1.9205,0.0008,402.28,0.18,3.2,13.6,138.10,28.38,24.61,36.32,0.04,-272.73,-272.74,-50,559,-922,22.9,1.5,-32.0,23.0,1.5,-31.6,5.73,2.47,-30.5,27.8
2012-03-21 01:10:00,0.0,1.9201,0.0010,402.32,0.20,1.6,7.0,138.10,28.39,24.61,36.32,0.04,-272.73,-272.73,-50,559,-922,23.0,1.5,-32.0,23.0,1.5,-31.6,5.73,2.25,-30.5,27.9
2012-03-21 01:11:00,0.0,1.9207,0.0009,402.31,0.18,2.6,9.4,138.10,28.41,24.61,36.33,0.04,-272.73,-272.74,-50,559,-922,23.0,1.5,-32.0,23.0,1.5,-31.7,5.73,2.46,-30.5,27.9
2012-03-21 01:12:00,0.0,1.9209,0.0008,402.37,0.18,3.0,10.7,138.10,28.42,24.61,36.33,0.04,-272.73,-272.73,-50,559,-922,23.0,1.5,-32.0,23.0,1.5,-31.6,5.73,2.25,-30.4,27.9
2012-03-21 01:13:00,0.0,1.9206,0.0009,402.39,0.20,2.4,10.3,138.10,28.44,24.61,36.33,0.04,-272.73,-272.74,-50,559,-922,23.1,1.5,-32.0,23.1,1.5,-31.6,5.73,2.38,-30.4,27.2
2012-03-21 01:14:00,0.0,1.9202,0.0011,402.40,0.20,2.5,11.7,138.11,28.44,24.61,36.32,0.04,-272.73,-272.73,-50,560,-923,23.1,1.5,-32.1,23.0,1.5,-31.6,5.73,2.43,-30.5,26.7
2012-03-21 01:15:00,0.0,1.9196,0.0009,402.28,0.17,1.5,8.6,138.11,28.44,24.61,36.33,0.04,-272.73,-272.73,-50,560,-923,23.0,1.5,-32.2,23.0,1.5,-31.8,5.73,2.39,-30.7,26.4
2012-03-21 01:16:00,0.0,1.9191,0.0010,402.23,0.17,0.1,5.7,138.12,28.44,24.61,36.32,0.04,-272.74,-272.74,-50,560,-923,23.0,1.4,-32.4,22.9,1.5,-31.9,5.73,2.37,-30.8,26.0
2012-03-21 01:17:00,0.0,1.9184,0.0009,402.22,0.20,0.4,6.4,138.12,28.43,24.61,36.32,0.04,-272.74,-272.73,-50,560,-923,22.9,1.4,-32.5,22.9,1.5,-31.9,5.73,2.37,-30.9,25.8
2012-03-21 01:18:00,0.0,1.9171,0.0008,402.09,0.20,-0.7,2.2,138.13,28.41,24.61,36.33,0.04,-272.73,-272.73,-50,560,-923,22.9,1.4,-32.4,22.8,1.5,-31.9,5.73,2.37,-31.1,25.7
2012-03-21 01:19:00,0.0,1.9169,0.0009,402.10,0.18,-1.0,0.0,138.13,28.39,24.61,36.32,0.04,-272.74,-272.74,-51,560,-923,22.8,1.4,-32.5,22.8,1.5,-32.0,5.73,2.37,-31.2,25.5
2012-03-21 01:20:00,0.0,1.9159,0.0009,402.01,0.21,-1.0,0.0,138.14,28.37,24.61,36.32,0.04,-272.73,-272.73,-51,559,-923,22.8,1.4,-32.5,22.7,1.5,-32.0,5.73,2.36,-31.3,25.3
2012-03-21 01:21:00,0.0,1.9159,0.0009,402.00,0.16,-1.0,0.0,138.14,28.35,24.60,36.32,0.04,-272.73,-272.74,-51,559,-923,22.7,1.4,-32.6,22.7,1.5,-32.0,5.73,2.37,-31.4,25.2
2012-03-21 01:22:00,0.0,1.9157,0.0010,401.96,0.23,-1.0,0.0,138.15,28.32,24.60,36.32,0.04,-272.74,-272.74,-51,559,-923,22.7,1.5,-32.3,22.6,1.5,-32.1,5.73,2.34,-31.5,25.4
2012-03-21 01:23:00,0.0,1.9151,0.0011,401.88,0.21,-1.0,0.0,138.15,28.30,24.61,36.32,0.04,-272.74,-272.74,-51,559,-923,22.7,1.5,-32.4,22.6,1.5,-32.1,5.73,2.28,-31.6,25.8
2012-03-21 01:24:00,0.0,1.9155,0.0010,402.00,0.19,-1.0,0.0,138.14,28.28,24.61,36.32,0.04,-272.73,-272.73,-49,559,-924,22.7,1.5,-32.4,22.6,1.5,-32.0,5.73,2.36,-31.5,26.3
2012-03-21 01:25:00,0.0,1.9158,0.0008,402.07,0.21,-1.0,0.0,138.14,28.27,24.60,36.31,0.04,-272.74,-272.74,-51,559,-922,22.7,1.5,-32.3,22.6,1.5,-32.1,5.73,2.42,-31.4,26.6
2012-03-21 01:26:00,0.0,1.9155,0.0010,401.91,0.19,-1.0,0.0,138.13,28.26,24.61,36.32,0.04,-272.74,-272.73,-50,559,-922,22.7,1.4,-32.5,22.6,1.5,-32.1,5.73,2.27,-31.3,26.8
2012-03-21 01:27:00,0.0,1.9158,0.0010,401.96,0.21,-1.0,0.0,138.13,28.26,24.60,36.32,0.04,-272.74,-272.73,-51,558,-922,22.7,1.4,-32.5,22.7,1.5,-32.1,5.73,2.47,-31.2,26.9
2012-03-21 01:28:00,0.0,1.9165,0.0009,401.97,0.21,-1.0,0.0,138.12,28.27,24.60,36.32,0.04,-272.74,-272.73,-51,558,-922,22.7,1.4,-32.5,22.7,1.5,-32.1,5.73,2.25,-31.1,27.0
2012-03-21 01:29:00,0.0,1.9162,0.0008,401.94,0.16,-1.0,0.0,138.12,28.27,24.61,36.32,0.04,-272.73,-272.73,-50,558,-922,22.7,1.4,-32.5,22.7,1.5,-32.2,5.73,2.47,-31.0,27.2
2012-03-21 01:30:00,0.0,1.9166,0.0010,401.92,0.17,-1.0,0.0,138.12,28.28,24.60,36.32,0.04,-272.73,-272.73,-51,558,-922,22.8,1.4,-32.5,22.7,1.5,-32.1,5.73,2.25,-31.0,27.3
2012-03-21 01:31:00,0.0,1.9171,0.0010,401.89,0.21,-0.9,0.3,138.12,28.29,24.60,36.33,0.04,-272.73,-272.74,-50,558,-922,22.8,1.4,-32.5,22.8,1.5,-32.1,5.73,2.45,-30.9,27.4
2012-03-21 01:32:00,0.0,1.9173,0.0010,401.90,0.18,-0.5,3.4,138.11,28.31,24.61,36.33,0.04,-272.74,-272.73,-50,558,-922,22.8,1.5,-32.3,22.8,1.5,-31.9,5.73,2.30,-30.8,27.4
2012-03-21 01:33:00,0.0,1.9180,0.0010,402.05,0.19,-0.5,2.7,138.11,28.32,24.60,36.32,0.04,-272.74,-272.73,-51,558,-922,22.8,1.5,-32.2,22.8,1.5,-31.8,5.73,2.40,-30.7,27.5
2012-03-21 01:34:00,0.0,1.9184,0.0010,402.02,0.19,0.6,6.8,138.11,28.33,24.61,36.32,0.04,-272.74,-272.73,-50,558,-922,22.9,1.5,-32.1,22.9,1.5,-31.6,5.73,2.33,-30.7,27.6
2012-03-21 01:35:00,0.0,1.9184,0.0009,402.07,0.20,-0.1,6.5,138.11,28.34,24.61,36.32,0.04,-272.74,-272.74,-50,558,-922,22.9,1.5,-31.9,22.9,1.6,-31.4,5.73,2.36,-30.6,27.6
2012-03-21 01:36:00,0.0,1.9188,0.0008,402.13,0.17,-0.1,4.3,138.10,28.36,24.61,36.32,0.04,-272.73,-272.74,-50,559,-923,22.9,1.5,-31.7,22.9,1.6,-31.3,5.73,2.37,-30.5,27.7
2012-03-21 01:37:00,0.0,1.9187,0.0009,402.08,0.22,3.8,11.6,138.10,28.37,24.61,36.32,0.04,-272.73,-272.74,-50,556,-922,23.0,1.6,-31.6,23.0,1.6,-31.1,5.73,2.33,-30.5,27.8
2012-03-21 01:38:00,0.0,1.9187,0.0010,402.01,0.20,2.9,11.3,138.10,28.39,24.61,36.33,0.04,-272.73,-272.73,-50,559,-922,23.0,1.6,-31.4,23.0,1.6,-30.9,5.73,2.38,-30.4,27.8
2012-03-21 01:39:00,0.0,1.9187,0.0010,402.01,0.22,0.9,7.9,138.10,28.40,24.61,36.33,0.04,-272.73,-272.74,-50,559,-922,23.0,1.6,-31.3,23.0,1.7,-30.8,5.73,2.32,-30.4,27.9
2012-03-21 01:40:00,0.0,1.9181,0.0008,401.96,0.20,1.1,7.1,138.10,28.42,24.61,36.34,0.04,-272.74,-272.74,-50,559,-922,23.1,1.6,-31.2,23.1,1.7,-30.7,5.73,2.39,-30.3,28.0
2012-03-21 01:41:00,0.0,1.9190,0.0010,402.09,0.21,3.2,11.5,138.10,28.44,24.61,36.33,0.04,-272.73,-272.73,-50,559,-922,23.1,1.6,-31.0,23.1,1.7,-30.7,5.73,2.33,-30.2,28.0
2012-03-21 01:42:00,0.0,1.9191,0.0009,402.14,0.17,3.5,12.7,138.10,28.45,24.61,36.33,0.04,-272.73,-272.74,-51,560,-922,23.1,1.6,-30.9,23.1,1.7,-30.7,5.73,2.40,-30.2,27.7
2012-03-21 01:43:00,0.0,1.9191,0.0008,402.19,0.18,4.3,10.7,138.10,28.47,24.61,36.32,0.04,-272.73,-272.74,-50,560,-923,23.1,1.6,-31.0,23.1,1.7,-30.7,5.73,2.26,-30.3,27.0
2012-03-21 01:44:00,0.0,1.9187,0.0009,402.05,0.19,4.8,12.0,138.11,28.47,24.61,36.33,0.04,-272.73,-272.74,-50,560,-923,23.1,1.6,-31.0,23.1,1.7,-30.6,5.73,2.35,-30.4,26.6
2012-03-21 01:45:00,0.0,1.9186,0.0008,401.99,0.18,2.5,10.3,138.11,28.47,24.61,36.33,0.04,-272.74,-272.73,-50,560,-923,23.1,1.6,-31.1,23.0,1.7,-30.6,5.73,2.39,-30.5,26.3
2012-03-21 01:46:00,0.0,1.9178,0.0009,402.00,0.21,-0.2,3.4,138.12,28.46,24.61,36.32,0.04,-272.74,-272.74,-51,560,-923,23.0,1.6,-31.1,23.0,1.7,-30.6,5.73,2.39,-30.7,26.0
2012-03-21 01:47:00,0.0,1.9171,0.0009,401.93,0.21,-0.4,4.4,138.12,28.45,24.61,36.33,0.04,-272.74,-272.74,-51,560,-923,23.0,1.6,-31.0,22.9,1.7,-30.6,5.73,2.38,-30.8,25.8
2012-03-21 01:48:00,0.0,1.9164,0.0010,401.87,0.21,-1.0,0.0,138.13,28.44,24.61,36.33,0.04,-272.74,-272.74,-51,560,-923,22.9,1.7,-30.9,22.9,1.7,-30.6,5.73,2.37,-30.9,25.5
2012-03-21 01:49:00,0.0,1.9156,0.0010,401.87,0.20,-0.5,3.7,138.13,28.42,24.61,36.33,0.04,-272.73,-272.74,-51,560,-923,22.9,1.6,-31.0,22.8,1.7,-30.7,5.73,2.37,-31.1,25.4
2012-03-21 01:50:00,0.0,1.9147,0.0009,401.78,0.22,-1.0,0.0,138.14,28.40,24.61,36.32,0.04,-272.74,-272.74,-51,560,-923,22.9,1.6,-31.0,22.8,1.7,-30.7,5.73,2.37,-31.2,25.3
2012-03-21 01:51:00,0.0,1.9146,0.0009,401.81,0.16,-1.0,0.0,138.14,28.37,24.60,36.32,0.04,-272.74,-272.74,-51,560,-923,22.8,1.6,-31.2,22.7,1.7,-30.8,5.73,2.37,-31.3,25.2
2012-03-21 01:52:00,0.0,1.9143,0.0009,401.83,0.21,-1.0,0.0,138.15,28.35,24.61,36.32,0.04,-272.73,-272.74,-51,559,-923,22.8,1.6,-31.2,22.7,1.7,-30.8,5.73,2.41,-31.4,25.3
2012-03-21 01:53:00,0.0,1.9140,0.0011,401.78,0.17,-1.0,0.0,138.14,28.32,24.61,36.32,0.04,-272.74,-272.73,-51,559,-923,22.7,1.6,-31.3,22.6,1.7,-30.9,5.73,2.33,-31.4,25.8
2012-03-21 01:54:00,0.0,1.9139,0.0010,401.89,0.19,-1.0,0.0,138.14,28.31,24.61,36.31,0.04,-272.73,-272.74,-51,559,-923,22.7,1.6,-31.3,22.7,1.7,-30.9,5.73,2.30,-31.3,26.3
2012-03-21 01:55:00,0.0,1.9149,0.0009,401.83,0.22,-1.0,0.0,138.14,28.30,24.60,36.32,0.04,-272.74,-272.74,-50,559,-922,22.7,1.6,-31.4,22.7,1.7,-31.0,5.73,2.45,-31.2,26.6
2012-03-21 01:56:00,0.0,1.9150,0.0009,401.88,0.21,-1.0,0.0,138.13,28.30,24.61,36.32,0.04,-272.73,-272.74,-50,558,-923,22.7,1.6,-31.4,22.7,1.7,-31.0,5.73,2.25,-31.1,26.8
2012-03-21 01:57:00,0.0,1.9155,0.0008,401.88,0.19,-1.0,0.0,138.13,28.29,24.60,36.32,0.04,-272.74,-272.75,-51,559,-923,22.8,1.6,-31.4,22.7,1.6,-31.1,5.73,2.48,-31.0,26.9
2012-03-21 01:58:00,0.0,1.9159,0.0010,401.91,0.19,-1.0,0.0,138.12,28.30,24.61,36.32,0.04,-272.74,-272.74,-50,559,-923,22.8,1.6,-31.4,22.8,1.6,-31.1,5.73,2.25,-30.9,27.0
2012-03-21 01:59:00,0.0,1.9162,0.0008,401.87,0.20,-1.0,0.0,138.12,28.30,24.61,36.33,0.04,-272.73,-272.73,-51,558,-922,22.8,1.6,-31.3,22.8,1.7,-31.0,5.73,2.47,-30.8,27.2
2012-03-21 02:00:00,1.0,1.8907,0.0188,386.40,11.01,-0.9,0.4,138.12,28.31,24.61,36.33,0.04,-272.74,-272.73,-50,521,-922,22.9,1.6,-31.3,22.8,1.7,-31.0,5.73,2.24,-30.7,27.3
2012-03-21 02:01:00,1.0,1.8688,0.0010,373.59,0.21,0.8,10.1,138.11,28.32,24.61,36.33,0.04,-272.73,-272.74,-50,519,-922,22.9,1.6,-31.2,22.8,1.7,-30.8,5.73,2.45,-30.6,27.4
2012-03-21 02:02:00,1.0,1.8693,0.0008,373.67,0.17,0.4,4.6,138.11,28.34,24.60,36.34,0.04,-272.73,-272.74,-51,519,-922,22.9,1.6,-31.1,22.9,1.7,-30.7,5.73,2.26,-30.6,27.5
2012-03-21 02:03:00,1.0,1.8698,0.0008,373.66,0.18,1.8,7.6,138.11,28.35,24.61,36.34,0.04,-272.73,-272.74,-50,519,-922,22.9,1.6,-31.1,22.9,1.7,-30.6,5.73,2.43,-30.5,27.6
2012-03-21 02:04:00,1.0,1.8702,0.0010,373.73,0.17,3.8,11.1,138.11,28.36,24.60,36.33,0.04,-272.74,-272.74,-51,519,-922,22.9,1.6,-31.0,22.9,1.7,-30.6,5.73,2.29,-30.4,27.7
2012-03-21 02:05:00,0.0,1.8969,0.0185,389.34,10.89,2.5,8.4,138.10,28.38,24.61,36.33,0.04,-272.73,-272.73,-50,559,-924,23.0,1.7,-30.9,23.0,1.7,-30.6,5.73,2.45,-30.3,27.8
2012-03-21 02:06:00,0.0,1.9183,0.0009,401.92,0.24,1.2,6.5,138.10,28.40,24.61,36.32,0.04,-272.74,-272.74,-51,558,-922,23.0,1.7,-30.9,23.0,1.7,-30.4,5.73,2.31,-30.3,27.8
2012-03-21 02:07:00,0.0,1.9185,0.0010,401.88,0.22,6.4,15.0,138.10,28.41,24.61,36.33,0.04,-272.73,-272.74,-51,559,-922,23.1,1.7,-30.8,23.1,1.7,-30.4,5.73,2.40,-30.3,27.9
2012-03-21 02:08:00,0.0,1.9182,0.0010,401.96,0.18,5.2,13.7,138.10,28.43,24.61,36.32,0.04,-272.74,-272.74,-50,559,-922,23.1,1.7,-30.7,23.1,1.8,-30.2,5.73,2.31,-30.1,28.0
2012-03-21 02:09:00,0.0,1.9188,0.0009,401.84,0.17,3.6,9.7,138.10,28.44,24.61,36.33,0.04,-272.74,-272.73,-51,559,-922,23.1,1.7,-30.6,23.1,1.8,-30.2,5.73,2.40,-30.1,28.1
2012-03-21 02:10:00,0.0,1.9188,0.0010,401.84,0.20,7.3,13.7,138.10,28.46,24.61,36.33,0.04,-272.74,-272.74,-50,559,-922,23.2,1.7,-30.4,23.2,1.8,-30.1,5.73,2.30,-30.0,28.1
2012-03-21 02:11:00,0.0,1.9191,0.0008,401.84,0.20,6.6,12.3,138.10,28.48,24.61,36.34,0.04,-272.73,-272.73,-51,559,-923,23.2,1.7,-30.4,23.2,1.8,-30.0,5.73,2.38,-30.0,27.6
2012-03-21 02:12:00,0.0,1.9188,0.0010,401.98,0.21,7.5,15.1,138.10,28.49,24.61,36.33,0.04,-272.74,-272.73,-51,560,-923,23.2,1.7,-30.5,23.2,1.8,-30.0,5.73,2.43,-30.0,27.0
2012-03-21 02:13:00,0.0,1.9188,0.0010,401.90,0.18,2.7,8.3,138.11,28.49,24.61,36.33,0.04,-272.74,-272.74,-50,560,-923,23.2,1.7,-30.5,23.1,1.8,-30.0,5.73,2.35,-30.2,26.6
2012-03-21 02:14:00,0.0,1.9189,0.0009,401.88,0.20,3.1,8.4,138.11,28.49,24.61,36.32,0.04,-272.73,-272.74,-51,560,-923,23.2,1.7,-30.3,23.1,1.8,-29.9,5.73,2.33,-30.3,26.3
2012-03-21 02:15:00,0.0,1.9185,0.0010,401.80,0.21,0.3,6.0,138.12,28.49,24.61,36.33,0.04,-272.74,-272.73,-51,560,-923,23.2,1.7,-30.3,23.0,1.8,-29.9,5.73,2.34,-30.5,26.1
2012-03-21 02:16:00,0.0,1.9178,0.0010,401.67,0.20,-0.3,2.8,138.12,28.48,24.61,36.33,0.04,-272.73,-272.74,-51,560,-923,23.1,1.7,-30.3,23.0,1.8,-29.9,5.73,2.35,-30.6,25.9
2012-03-21 02:17:00,0.0,1.9165,0.0010,401.76,0.25,-0.9,0.5,138.13,28.46,24.61,36.32,0.04,-272.74,-272.73,-51,560,-923,23.1,1.7,-30.4,23.0,1.8,-29.9,5.73,2.35,-30.7,25.7
2012-03-21 02:18:00,0.0,1.9158,0.0010,401.88,0.18,-0.8,1.2,138.13,28.45,24.61,36.32,0.04,-272.73,-272.73,-51,560,-923,23.0,1.7,-30.4,22.9,1.8,-30.0,5.73,2.36,-30.8,25.6